Location: Ladd Observatory
(41.8387°N, 71.3996°W)
Time: 15:03:58
(UTC-04:00)

ISS - Visible Passes

Search period start: 17 April 2014 00:00
Search period end: 27 April 2014 00:00
Orbit: 414 x 419 km, 51.6° (Epoch: 17 April)

Date Brightness Start Highest point End Pass type
(mag) Time Alt. Az. Time Alt. Az. Time Alt. Az.
17 Apr -1.1 20:42:02 10° NW 20:44:36 20° NNE 20:46:48 12° ENE visible
17 Apr -0.7 22:18:26 10° NW 22:19:43 21° NW 22:19:43 21° NW visible
18 Apr -0.9 19:53:46 10° NNW 19:56:05 17° N 19:58:24 10° NE visible
18 Apr -2.5 21:30:11 10° NW 21:33:16 45° NNE 21:33:16 45° NNE visible
19 Apr -2.0 20:41:56 10° NW 20:45:00 32° NNE 20:46:49 19° ENE visible
19 Apr -0.6 22:18:38 10° WNW 22:19:43 18° WNW 22:19:43 18° WNW visible
20 Apr -3.1 21:30:08 10° WNW 21:33:16 66° WSW 21:33:16 66° WSW visible
21 Apr -3.2 20:41:42 10° NW 20:45:03 70° NNE 20:46:49 25° ESE visible
21 Apr -0.2 22:19:31 10° W 22:19:43 11° W 22:19:43 11° W visible
22 Apr -1.6 21:30:20 10° WNW 21:33:07 24° SW 21:33:17 24° SW visible
23 Apr -2.4 20:41:32 10° WNW 20:44:44 42° SW 20:46:52 18° SSE visible
25 Apr -0.7 20:41:57 10° W 20:44:01 16° SW 20:46:06 10° S visible
